Location: Sobotiste
(48.7170°N, 17.4000°E)
Time: 13:02:08
(UTC+01:00)

CUTE 1.7 + AOD 2 - Visible Passes

Search period start: 15 March 2026 00:00
Search period end: 25 March 2026 00:00
Orbit: 535 x 547 km, 97.8° (Epoch: 14 March)

Date Brightness Start Highest point End Pass type
(mag) Time Alt. Az. Time Alt. Az. Time Alt. Az.
15 Mar ? 03:36:37 10° NE 03:39:57 26° E 03:43:17 10° SSE visible
15 Mar ? 05:11:01 10° N 05:14:29 30° WNW 05:17:57 10° SW visible
16 Mar ? 03:29:40 10° NE 03:32:48 22° E 03:35:54 10° SE visible
16 Mar ? 05:03:48 10° N 05:07:25 36° WNW 05:11:02 10° SW visible
17 Mar ? 03:22:47 10° NE 03:25:36 19° E 03:28:26 10° SE visible
17 Mar ? 04:56:35 10° N 05:00:20 42° WNW 05:04:03 10° SW visible
18 Mar ? 03:15:56 10° NE 03:18:24 16° E 03:20:51 10° SE visible
18 Mar ? 04:49:23 10° N 04:53:13 51° WNW 04:57:02 10° SSW visible
19 Mar ? 03:09:10 10° ENE 03:11:10 13° E 03:13:09 10° ESE visible
19 Mar ? 04:42:10 10° N 04:46:05 61° WNW 04:49:57 10° SSW visible
20 Mar ? 03:02:39 10° ENE 03:03:54 11° E 03:05:09 10° ESE visible
20 Mar ? 04:34:58 10° N 04:38:55 74° WNW 04:42:50 10° SSW visible
21 Mar ? 04:27:46 10° NNE 04:31:43 88° WNW 04:35:40 10° SSW visible
22 Mar ? 04:20:34 10° NNE 04:24:31 77° ESE 04:28:27 10° S visible
23 Mar ? 04:13:22 10° NNE 04:17:17 64° E 04:21:11 10° S visible
24 Mar ? 04:06:10 10° NNE 04:10:02 52° E 04:13:53 10° S visible
